Location: Newark
(34.9500°N, 139.9667°E)
Time: 22:19:52
(UTC+00:00)

deb Explorer IX - Visible Passes

Search period start: 10 December 2019 00:00
Search period end: 20 December 2019 00:00
Orbit: 546 x 1105 km, 38.8° (Epoch: 09 December)

Date Brightness Start Highest point End Pass type
(mag) Time Alt. Az. Time Alt. Az. Time Alt. Az.
10 Dec ? 07:53:49 10° W 07:59:50 76° NNW 08:06:48 10° ENE visible
10 Dec ? 09:41:12 10° WNW 09:47:44 64° N 09:48:23 61° NNE visible
10 Dec ? 11:28:32 10° WNW 11:29:45 16° WNW 11:29:45 16° WNW visible
11 Dec ? 09:19:11 10° WNW 09:25:34 64° N 09:27:32 46° ENE visible
11 Dec ? 11:06:27 10° WNW 11:08:54 24° WNW 11:08:54 24° WNW visible
12 Dec ? 08:57:11 10° WNW 09:03:25 64° N 09:06:44 32° ENE visible
12 Dec ? 10:44:22 10° WNW 10:48:06 37° WNW 10:48:06 37° WNW visible
13 Dec ? 08:35:12 10° WNW 08:41:17 63° N 08:45:59 21° E visible
13 Dec ? 10:22:19 10° WNW 10:27:22 56° W 10:27:22 56° W visible
14 Dec ? 08:13:14 10° WNW 08:19:08 63° N 08:25:20 13° E visible
14 Dec ? 10:00:17 10° WNW 10:06:43 80° SSW 10:06:43 80° SSW visible
14 Dec ? 11:47:59 10° W 11:48:07 11° W 11:48:07 11° W visible
15 Dec ? 07:51:17 10° WNW 07:57:01 63° N 08:03:41 10° E visible
15 Dec ? 09:38:16 10° WNW 09:44:36 79° SSW 09:46:12 56° SE visible
15 Dec ? 11:25:55 10° W 11:27:36 17° W 11:27:36 17° W visible
16 Dec ? 09:16:15 10° WNW 09:22:26 78° SSW 09:25:49 32° ESE visible
16 Dec ? 11:03:53 10° W 11:07:14 24° WSW 11:07:14 24° WSW visible
17 Dec ? 08:54:16 10° WNW 09:00:16 77° SSW 09:05:39 17° ESE visible
17 Dec ? 10:41:52 10° W 10:47:05 28° SW 10:47:05 28° SW visible
18 Dec ? 08:32:17 10° WNW 08:38:07 75° SSW 08:44:54 10° ESE visible
18 Dec ? 10:19:53 10° W 10:25:08 27° SW 10:27:11 23° S visible
19 Dec ? 08:10:18 10° WNW 08:15:58 74° SSW 08:22:36 10° ESE visible
19 Dec ? 09:57:54 10° W 10:02:58 26° SW 10:07:38 13° SSE visible
